DW5798 Weather Reports


Display with metric or nautical units.
time (UTC)temp
F
wind
direction
speed
MPH
gust
MPH
rain 1hr
in
rain 24hr
in
rain mn
in
humidity
%
barometer
mb
20220127091303 32 325 1.0 6.0 0.00 0.00 0.00 75 1014.0
20220127090804 32 303 1.0 5.0 0.00 0.00 0.00 74 1013.9
20220127090306 32 339 1.0 5.0 0.00 0.00 0.00 74 1013.8
20220127085805 32 325 2.0 7.0 0.00 0.00 0.00 74 1013.8
20220127085305 32 314 2.0 7.0 0.00 0.00 0.00 75 1013.7
20220127084806 32 328 1.0 7.0 0.00 0.00 0.00 75 1013.5
20220127084304 32 322 2.0 12.0 0.00 0.00 0.00 76 1013.4
20220127083804 32 323 2.0 9.0 0.00 0.00 0.00 78 1013.4
20220127083304 32 300 3.0 12.0 0.00 0.00 0.00 79 1013.2
20220127082804 33 311 0.0 3.0 0.00 0.00 0.00 81 1013.1
20220127082305 33 310 1.0 5.0 0.00 0.00 0.00 81 1012.9
20220127081804 33 307 2.0 3.0 0.00 0.00 0.00 82 1012.7
20220127081304 33 278 1.0 3.0 0.00 0.00 0.00 82 1012.7
20220127080803 33 284 1.0 5.0 0.00 0.00 0.00 81 1012.5
20220127080303 33 334 1.0 3.0 0.00 0.00 0.00 81 1012.4
20220127075803 33 290 1.0 3.0 0.00 0.00 0.00 81 1012.3
20220127075305 33 279 1.0 3.0 0.00 0.00 0.00 81 1012.3
20220127074803 33 316 0.0 3.0 0.00 0.00 0.00 81 1012.3
20220127074303 33 306 1.0 6.0 0.00 0.00 0.00 81 1012.1
20220127073803 33 257 1.0 5.0 0.00 0.00 0.00 81 1012.1
20220127073303 33 279 1.0 3.0 0.00 0.00 0.00 81 1012.0
20220127072804 33 335 1.0 3.0 0.00 0.00 0.00 80 1011.9
20220127072306 33 245 1.0 3.0 0.00 0.00 0.00 80 1011.8
20220127071803 33 289 1.0 3.0 0.00 0.00 0.00 80 1011.8
20220127071303 33 306 1.0 3.0 0.00 0.00 0.00 79 1011.8
20220127070804 33 288 0.0 7.0 0.00 0.00 0.00 79 1011.7
20220127070307 32 247 1.0 3.0 0.00 0.00 0.00 80 1011.7
20220127065807 32 296 1.0 3.0 0.00 0.00 0.00 79 1011.6
20220127065307 32 288 0.0 2.0 0.00 0.00 0.00 79 1011.7
20220127064807 32 207 0.0 1.0 0.00 0.00 0.00 79 1011.6
20220127064306 32 271 2.0 5.0 0.00 0.00 0.00 79 1011.5
20220127063807 32 230 1.0 3.0 0.00 0.00 0.00 78 1011.5
20220127063307 32 287 1.0 3.0 0.00 0.00 0.00 78 1011.6
20220127062808 32 250 1.0 5.0 0.00 0.00 0.00 78 1011.6
20220127062307 32 247 1.0 5.0 0.00 0.00 0.00 78 1011.6
20220127061806 32 223 2.0 8.0 0.00 0.00 0.00 78 1011.6
20220127061307 31 252 1.0 6.0 0.00 0.00 0.00 79 1011.6
20220127060814 31 249 1.0 3.0 0.00 0.00 0.00 79 1011.6
20220127060307 31 288 2.0 5.0 0.00 0.00 0.00 80 1011.6
20220127055807 30 264 1.0 3.0 0.00 0.00 0.00 80 1011.6
20220127055308 29 248 1.0 3.0 0.00 0.00 0.00 80 1011.6
20220127054808 28 190 0.0 1.0 0.00 0.00 0.00 80 1011.6
20220127054307 28 191 0.0 2.0 0.00 0.00 0.00 79 1011.6
20220127053808 28 190 0.0 0.0 0.00 0.00 0.00 79 1011.5
20220127053307 28 191 0.0 0.0 0.00 0.00 0.00 78 1011.5
20220127052807 28 190 0.0 0.0 0.00 0.00 0.00 78 1011.4
20220127052306 28 190 0.0 1.0 0.00 0.00 0.00 78 1011.5
20220127051807 28 190 0.0 2.0 0.00 0.00 0.00 78 1011.4
20220127051307 27 190 0.0 2.0 0.00 0.00 0.00 78 1011.4
20220127050806 27 190 0.0 0.0 0.00 0.00 0.00 78 1011.4
20220127050306 27 191 0.0 0.0 0.00 0.00 0.00 78 1011.4
20220127045807 27 191 1.0 2.0 0.00 0.00 0.00 77 1011.4
20220127045307 27 191 1.0 3.0 0.00 0.00 0.00 77 1011.4
20220127044807 27 191 2.0 3.0 0.00 0.00 0.00 77 1011.4
20220127044307 27 192 2.0 3.0 0.00 0.00 0.00 77 1011.3
20220127043806 26 191 1.0 3.0 0.00 0.00 0.00 77 1011.4
20220127043307 26 196 2.0 3.0 0.00 0.00 0.00 77 1011.4
20220127042806 26 195 1.0 3.0 0.00 0.00 0.00 77 1011.5
20220127042307 26 175 1.0 3.0 0.00 0.00 0.00 77 1011.5
20220127041807 26 203 1.0 3.0 0.00 0.00 0.00 76 1011.4
20220127041307 26 187 2.0 3.0 0.00 0.00 0.00 76 1011.5
20220127040807 26 190 1.0 5.0 0.00 0.00 0.00 77 1011.6
20220127040307 26 188 1.0 5.0 0.00 0.00 0.00 77 1011.5
20220127035807 26 190 1.0 5.0 0.00 0.00 0.00 77 1011.5
20220127035308 25 200 1.0 3.0 0.00 0.00 0.00 76 1011.5
20220127034807 25 198 0.0 1.0 0.00 0.00 0.00 76 1011.6
20220127034307 25 208 2.0 3.0 0.00 0.00 0.00 76 1011.6
20220127033807 25 205 1.0 5.0 0.00 0.00 0.00 76 1011.5
20220127033307 25 213 1.0 3.0 0.00 0.00 0.00 76 1011.5
20220127032806 25 189 2.0 7.0 0.00 0.00 0.00 76 1011.5
20220127032307 25 198 3.0 7.0 0.00 0.00 0.00 76 1011.6
20220127031807 25 189 3.0 7.0 0.00 0.00 0.00 76 1011.7
20220127031307 25 198 2.0 6.0 0.00 0.00 0.00 76 1011.7
20220127030808 25 193 2.0 3.0 0.00 0.00 0.00 76 1011.7
20220127030306 25 199 1.0 5.0 0.00 0.00 0.00 76 1011.8
20220127025807 25 189 2.0 5.0 0.00 0.00 0.00 76 1011.8
20220127025308 25 215 1.0 7.0 0.00 0.00 0.00 76 1011.9
20220127024806 25 210 1.0 3.0 0.00 0.00 0.00 75 1011.9
20220127024307 24 197 2.0 6.0 0.00 0.00 0.00 75 1012.0
20220127023807 24 191 2.0 7.0 0.00 0.00 0.00 75 1012.0
20220127023307 24 199 3.0 7.0 0.00 0.00 0.00 75 1012.0
20220127022808 24 192 2.0 6.0 0.00 0.00 0.00 75 1012.1
20220127022306 24 192 3.0 5.0 0.00 0.00 0.00 75 1012.1
20220127021808 24 194 1.0 6.0 0.00 0.00 0.00 75 1012.2
20220127021307 24 193 2.0 7.0 0.00 0.00 0.00 74 1012.2
20220127020808 24 196 5.0 12.0 0.00 0.00 0.00 74 1012.2
20220127020308 24 189 3.0 7.0 0.00 0.00 0.00 74 1012.2
20220127015806 24 198 3.0 10.0 0.00 0.00 0.00 74 1012.4
20220127015307 24 192 3.0 10.0 0.00 0.00 0.00 74 1012.4
20220127014807 24 201 3.0 12.0 0.00 0.00 0.00 74 1012.5
20220127014306 24 189 3.0 10.0 0.00 0.00 0.00 74 1012.7
20220127013807 24 191 2.0 10.0 0.00 0.00 0.00 75 1012.7
20220127013306 24 201 1.0 3.0 0.00 0.00 0.00 74 1012.7
20220127012807 24 201 1.0 6.0 0.00 0.00 0.00 74 1012.7
20220127012307 24 205 2.0 10.0 0.00 0.00 0.00 74 1012.6
20220127011807 24 191 4.0 10.0 0.00 0.00 0.00 74 1012.7
20220127011307 24 197 6.0 13.0 0.00 0.00 0.00 74 1012.7
20220127010807 24 202 4.0 9.0 0.00 0.00 0.00 74 1012.6
20220127010307 23 177 3.0 8.0 0.00 0.00 0.00 75 1012.4
20220127005808 23 182 4.0 12.0 0.00 0.00 0.00 75 1012.4
20220127005307 23 191 2.0 7.0 0.00 0.00 0.00 74 1012.3
20220127004807 23 187 3.0 7.0 0.00 0.00 0.00 74 1012.7
20220127004306 23 193 4.0 12.0 0.00 0.00 0.00 74 1012.7
20220127003808 23 189 5.0 10.0 0.00 0.00 0.00 74 1012.7
20220127003308 23 200 5.0 10.0 0.00 0.00 0.00 74 1012.7
20220127002807 23 171 5.0 10.0 0.00 0.00 0.00 74 1012.8
20220127002307 23 192 4.0 9.0 0.00 0.00 0.00 75 1012.9
20220127001807 23 194 6.0 13.0 0.00 0.00 0.00 75 1012.8
20220127001307 22 185 3.0 12.0 0.00 0.00 0.00 74 1012.8
20220127000807 22 184 3.0 7.0 0.00 0.00 0.00 75 1013.1
20220127000306 22 198 3.0 7.0 0.00 0.00 0.00 74 1013.2
20220126235808 22 188 4.0 9.0 0.00 0.00 0.00 74 1013.4
20220126235308 22 190 5.0 9.0 0.00 0.00 0.00 74 1013.5
20220126234806 22 194 4.0 12.0 0.00 0.00 0.00 74 1013.4
20220126234307 22 189 3.0 7.0 0.00 0.00 0.00 74 1013.4
20220126233807 22 195 5.0 12.0 0.00 0.00 0.00 74 1013.6
20220126233307 21 193 5.0 12.0 0.00 0.00 0.00 74 1013.7
20220126232807 21 194 3.0 9.0 0.00 0.00 0.00 74 1013.6
20220126232307 21 193 6.0 9.0 0.00 0.00 0.00 74 1013.6
20220126231807 21 195 5.0 12.0 0.00 0.00 0.00 74 1013.6
20220126231306 21 186 4.0 10.0 0.00 0.00 0.00 74 1013.7
20220126230807 20 197 4.0 8.0 0.00 0.00 0.00 74 1013.7
20220126230307 20 188 5.0 9.0 0.00 0.00 0.00 74 1013.8
20220126225807 20 176 4.0 9.0 0.00 0.00 0.00 74 1013.7
20220126225307 19 185 1.0 5.0 0.00 0.00 0.00 73 1013.8
20220126224807 19 187 4.0 10.0 0.00 0.00 0.00 73 1013.8
20220126224307 19 190 2.0 5.0 0.00 0.00 0.00 73 1013.8
20220126223807 18 187 2.0 6.0 0.00 0.00 0.00 73 1014.0
20220126223307 18 190 1.0 3.0 0.00 0.00 0.00 72 1014.2
20220126222807 18 190 2.0 5.0 0.00 0.00 0.00 72 1014.3
20220126222307 18 179 1.0 6.0 0.00 0.00 0.00 72 1014.3
20220126221807 18 162 2.0 6.0 0.00 0.00 0.00 72 1014.3
20220126221308 18 182 0.0 8.0 0.00 0.00 0.00 72 1014.3
20220126220807 18 190 2.0 6.0 0.00 0.00 0.00 72 1014.5
20220126220307 18 185 1.0 6.0 0.00 0.00 0.00 71 1014.7
20220126215807 18 195 0.0 3.0 0.00 0.00 0.00 71 1014.8
20220126215307 18 179 1.0 6.0 0.00 0.00 0.00 71 1014.8
20220126214806 17 199 2.0 5.0 0.00 0.00 0.00 71 1014.9
20220126214307 17 187 2.0 6.0 0.00 0.00 0.00 71 1014.7
20220126213807 17 187 4.0 8.0 0.00 0.00 0.00 70 1014.8
20220126213307 17 195 2.0 6.0 0.00 0.00 0.00 70 1014.9
20220126212807 17 185 2.0 7.0 0.00 0.00 0.00 70 1015.2
20220126212307 17 192 4.0 7.0 0.00 0.00 0.00 70 1015.2
20220126211807 17 190 4.0 12.0 0.00 0.00 0.00 70 1015.2
20220126211307 17 191 3.0 7.0 0.00 0.00 0.00 70 1015.3
20220126210807 17 195 4.0 12.0 0.00 0.00 0.00 70 1015.5
20220126210307 17 198 3.0 8.0 0.00 0.00 0.00 70 1015.6
20220126205807 17 185 3.0 8.0 0.00 0.00 0.00 70 1015.6
20220126205307 16 198 5.0 8.0 0.00 0.00 0.00 70 1015.5
20220126204807 16 191 5.0 12.0 0.00 0.00 0.00 70 1015.6
20220126204307 16 196 5.0 12.0 0.00 0.00 0.00 70 1015.6
20220126203806 16 193 5.0 12.0 0.00 0.00 0.00 70 1015.6
20220126203307 16 183 2.0 9.0 0.00 0.00 0.00 70 1015.8
20220126202807 16 194 3.0 7.0 0.00 0.00 0.00 71 1016.0
20220126202307 16 197 1.0 6.0 0.00 0.00 0.00 71 1016.0
20220126201806 16 195 3.0 8.0 0.00 0.00 0.00 71 1016.2
20220126201306 15 168 2.0 5.0 0.00 0.00 0.00 71 1016.1
20220126200807 15 179 1.0 6.0 0.00 0.00 0.00 71 1016.1
20220126200307 15 194 4.0 9.0 0.00 0.00 0.00 71 1016.1
20220126195807 15 191 3.0 9.0 0.00 0.00 0.00 71 1016.2
20220126195306 15 188 2.0 8.0 0.00 0.00 0.00 71 1016.4
20220126194807 15 186 3.0 7.0 0.00 0.00 0.00 71 1016.6
20220126194307 15 188 3.0 7.0 0.00 0.00 0.00 70 1016.7
20220126193807 15 184 3.0 9.0 0.00 0.00 0.00 70 1016.9
20220126193306 14 187 6.0 10.0 0.00 0.00 0.00 70 1017.0
20220126192807 14 193 3.0 9.0 0.00 0.00 0.00 70 1017.2
20220126192307 14 197 5.0 12.0 0.00 0.00 0.00 70 1017.4
20220126191807 14 188 7.0 12.0 0.00 0.00 0.00 69 1017.5
20220126191307 14 199 3.0 9.0 0.00 0.00 0.00 70 1017.7
20220126190806 14 198 3.0 7.0 0.00 0.00 0.00 70 1017.9
20220126190306 13 172 3.0 8.0 0.00 0.00 0.00 69 1017.8
20220126185806 13 190 3.0 7.0 0.00 0.00 0.00 69 1018.0
20220126185307 13 181 6.0 12.0 0.00 0.00 0.00 69 1018.0
20220126184807 13 198 4.0 9.0 0.00 0.00 0.00 69 1018.1
20220126184307 13 191 5.0 12.0 0.00 0.00 0.00 68 1018.4
20220126183807 13 194 4.0 12.0 0.00 0.00 0.00 68 1018.7
20220126183307 13 201 5.0 9.0 0.00 0.00 0.00 68 1018.7
20220126182807 12 206 3.0 9.0 0.00 0.00 0.00 68 1018.8
20220126182307 12 193 5.0 12.0 0.00 0.00 0.00 68 1019.1
20220126181807 12 188 4.0 13.0 0.00 0.00 0.00 68 1019.3
20220126181307 12 193 5.0 10.0 0.00 0.00 0.00 67 1019.7
20220126180806 11 192 3.0 7.0 0.00 0.00 0.00 67 1019.7
20220126180307 11 182 5.0 12.0 0.00 0.00 0.00 66 1020.0
20220126175807 11 190 2.0 9.0 0.00 0.00 0.00 66 1020.4
20220126175307 10 194 2.0 7.0 0.00 0.00 0.00 65 1020.6
20220126174806 10 193 3.0 10.0 0.00 0.00 0.00 65 1020.8
20220126174307 10 177 1.0 7.0 0.00 0.00 0.00 65 1021.0
20220126173807 9 190 3.0 8.0 0.00 0.00 0.00 65 1021.3
20220126173307 9 192 5.0 9.0 0.00 0.00 0.00 65 1021.5
20220126172807 9 190 4.0 7.0 0.00 0.00 0.00 64 1021.7
20220126172307 8 192 3.0 10.0 0.00 0.00 0.00 64 1021.8
20220126171807 8 182 3.0 10.0 0.00 0.00 0.00 65 1022.0
20220126171307 8 172 2.0 7.0 0.00 0.00 0.00 64 1022.0
20220126170806 7 189 3.0 8.0 0.00 0.00 0.00 64 1022.2
20220126170307 6 184 1.0 7.0 0.00 0.00 0.00 65 1022.4
20220126165807 6 192 3.0 8.0 0.00 0.00 0.00 65 1022.5
20220126165307 5 191 2.0 5.0 0.00 0.00 0.00 66 1022.7
20220126164806 4 178 1.0 8.0 0.00 0.00 0.00 65 1022.8
20220126164306 4 174 1.0 7.0 0.00 0.00 0.00 66 1022.9
20220126163808 4 156 1.0 5.0 0.00 0.00 0.00 66 1023.3
20220126163308 3 168 2.0 6.0 0.00 0.00 0.00 66 1023.4
20220126162806 3 179 1.0 3.0 0.00 0.00 0.00 67 1023.5
20220126162307 2 192 1.0 3.0 0.00 0.00 0.00 67 1023.8
20220126161807 1 155 1.0 3.0 0.00 0.00 0.00 68 1023.9
20220126161307 1 195 2.0 7.0 0.00 0.00 0.00 69 1023.9
20220126160806 0 166 1.0 6.0 0.00 0.00 0.00 69 1024.0
20220126160307 -1 178 2.0 7.0 0.00 0.00 0.00 70 1024.1
20220126155807 -1 181 2.0 7.0 0.00 0.00 0.00 70 1024.2
20220126155307 -2 176 1.0 5.0 0.00 0.00 0.00 70 1024.3
20220126154807 -2 167 2.0 7.0 0.00 0.00 0.00 71 1024.3
20220126154307 -2 165 1.0 5.0 0.00 0.00 0.00 71 1024.4
20220126153806 -3 181 2.0 8.0 0.00 0.00 0.00 72 1024.6
20220126153306 -3 167 1.0 8.0 0.00 0.00 0.00 72 1024.7
20220126152808 -3 164 2.0 7.0 0.00 0.00 0.00 72 1024.9
20220126152307 -4 182 1.0 5.0 0.00 0.00 0.00 73 1025.0
20220126151807 -5 191 2.0 7.0 0.00 0.00 0.00 73 1025.3
20220126151306 -5 175 2.0 6.0 0.00 0.00 0.00 74 1025.3
20220126150806 -5 176 2.0 3.0 0.00 0.00 0.00 74 1025.4
20220126150307 -6 197 1.0 3.0 0.00 0.00 0.00 74 1025.5
20220126145806 -6 165 1.0 6.0 0.00 0.00 0.00 74 1025.8
20220126145306 -7 165 1.0 7.0 0.00 0.00 0.00 74 1025.9
20220126144806 -7 199 1.0 5.0 0.00 0.00 0.00 75 1026.2
20220126144307 -7 184 2.0 7.0 0.00 0.00 0.00 75 1026.3
20220126143806 -8 162 1.0 3.0 0.00 0.00 0.00 75 1026.4
20220126143306 -8 196 1.0 3.0 0.00 0.00 0.00 75 1026.5
20220126133306 -12 136 0.0 0.0 0.00 0.00 0.00 75 1027.9
20220126132806 -12 135 0.0 0.0 0.00 0.00 0.00 75 1028.0
20220126132306 -12 163 0.0 0.0 0.00 0.00 0.00 75 1028.1
20220126131806 -12 163 0.0 0.0 0.00 0.00 0.00 75 1028.2
20220126131306 -13 163 0.0 0.0 0.00 0.00 0.00 75 1028.2
20220126130805 -13 163 0.0 0.0 0.00 0.00 0.00 75 1028.3
20220126130306 -13 163 0.0 1.0 0.00 0.00 0.00 75 1028.3
20220126125807 -13 164 0.0 2.0 0.00 0.00 0.00 75 1028.7
20220126125306 -13 182 0.0 3.0 0.00 0.00 0.00 75 1028.8
20220126124807 -13 149 0.0 2.0 0.00 0.00 0.00 75 1028.9
20220126124306 -13 149 0.0 2.0 0.00 0.00 0.00 75 1029.0
20220126123806 -13 149 0.0 2.0 0.00 0.00 0.00 75 1029.1
20220126123306 -13 148 0.0 0.0 0.00 0.00 0.00 74 1029.1
20220126122805 -13 148 0.0 2.0 0.00 0.00 0.00 74 1029.1
20220126122306 -13 148 0.0 0.0 0.00 0.00 0.00 75 1029.0
20220126121806 -14 148 0.0 3.0 0.00 0.00 0.00 74 1029.0
20220126121307 -14 260 0.0 1.0 0.00 0.00 0.00 74 1028.9
20220126120806 -14 262 0.0 0.0 0.00 0.00 0.00 74 1029.0
20220126120306 -14 262 0.0 0.0 0.00 0.00 0.00 74 1028.9
20220126115805 -14 262 0.0 2.0 0.00 0.00 0.00 74 1029.0
20220126115306 -14 264 1.0 2.0 0.00 0.00 0.00 74 1029.4
20220126114806 -14 265 0.0 1.0 0.00 0.00 0.00 74 1029.5
20220126114306 -14 265 0.0 0.0 0.00 0.00 0.00 74 1029.6
20220126113807 -14 265 0.0 0.0 0.00 0.00 0.00 74 1029.8
20220126113305 -14 266 0.0 0.0 0.00 0.00 0.00 74 1030.0
20220126112806 -14 266 0.0 0.0 0.00 0.00 0.00 74 1030.1
20220126112306 -14 266 0.0 2.0 0.00 0.00 0.00 74 1030.0
20220126111806 -14 267 0.0 2.0 0.00 0.00 0.00 74 1030.1
20220126111306 -14 268 0.0 1.0 0.00 0.00 0.00 74 1030.2
20220126110805 -14 269 0.0 0.0 0.00 0.00 0.00 74 1030.4
20220126110306 -14 268 0.0 0.0 0.00 0.00 0.00 74 1030.6
20220126105806 -14 268 0.0 0.0 0.00 0.00 0.00 74 1030.9
20220126105306 -14 269 0.0 0.0 0.00 0.00 0.00 74 1031.0
20220126104806 -14 269 0.0 0.0 0.00 0.00 0.00 74 1031.0
20220126104305 -14 269 0.0 0.0 0.00 0.00 0.00 74 1031.2
20220126103806 -14 269 0.0 1.0 0.00 0.00 0.00 74 1031.3
20220126103306 -14 269 0.0 0.0 0.00 0.00 0.00 74 1031.1
20220126102806 -14 268 0.0 0.0 0.00 0.00 0.00 74 1031.2
20220126102306 -14 269 0.0 0.0 0.00 0.00 0.00 74 1031.3
20220126101806 -14 269 0.0 0.0 0.00 0.00 0.00 74 1031.3
20220126101305 -14 269 0.0 0.0 0.00 0.00 0.00 74 1031.4
20220126100805 -14 268 0.0 0.0 0.00 0.00 0.00 74 1031.4
20220126100306 -14 269 0.0 0.0 0.00 0.00 0.00 74 1031.6
20220126095805 -14 268 0.0 0.0 0.00 0.00 0.00 74 1031.9
20220126095306 -14 269 0.0 0.0 0.00 0.00 0.00 74 1031.9
20220126094806 -14 269 0.0 0.0 0.00 0.00 0.00 74 1031.8
20220126094306 -14 268 0.0 0.0 0.00 0.00 0.00 74 1031.9
20220126093806 -14 269 0.0 0.0 0.00 0.00 0.00 74 1032.0
20220126093305 -14 268 0.0 0.0 0.00 0.00 0.00 74 1032.0
20220126092806 -14 269 0.0 0.0 0.00 0.00 0.00 74 1032.1
20220126092306 -14 269 0.0 0.0 0.00 0.00 0.00 74 1032.1
20220126091806 -14 269 0.0 0.0 0.00 0.00 0.00 74 1032.2